Miscellaneous Local Product
Issued by NWS North Platte, NE

Home | Current Version | Previous Version | Text Only | Print | Product List | Glossary On
Versions: 1 2 3 4 5 6 7 8 9 10 11 12 13 14 15 16 17 18 19 20 21 22 23 24 25 26 27 28 29 30 31 32 33 34 35 36 37 38 39 40 41 42 43 44 45 46 47 48 49 50
000
AXUS43 KLBF 260110
MISLBF


WESTERN AND NORTH CENTRAL NEBRASKA HOURLY WEATHER ROUNDUP
NATIONAL WEATHER SERVICE NORTH PLATTE NE
800 PM CDT THU AUG 25 2016

NOTE: "FAIR" INDICATES FEW OR NO CLOUDS BELOW 12,000 FEET WITH NO
SIGNIFICANT WEATHER AND/OR OBSTRUCTIONS TO VISIBILITY.

NOTE: STATIONS NOT REPORTING VARIABLES SUCH AS SKY/WEATHER OR
PRESSURE ARE PROVIDED BY RAWS AND APRS NETWORKS AND ARE NOT UNDER
NATIONAL WEATHER SERVICE QUALITY CONTROL.

...OBSERVATIONS IN AND NEAR THE EASTERN PANHANDLE OF NEBRASKA...

CITY           SKY/WX    TMP DP  RH WIND       PRES   REMARKS
PINE RIDGE     CLOUDY    63  49  60 NE6       30.21S
CHADRON        CLOUDY    66  48  52 NE8       30.19F
ALLIANCE       PTCLDY    65  46  50 NE9       30.19S
SIDNEY         CLOUDY    69  43  38 SE9       30.20S
CRESCENT LAKE    N/A     68  45  43 E6          N/A
$$

...OBSERVATIONS IN NORTHERN NEBRASKA AND FAR SOUTHERN SOUTH DAKOTA...

CITY           SKY/WX    TMP DP  RH WIND       PRES   REMARKS
WINNER         FAIR      69  49  48 NW5       30.17R
VALENTINE      CLEAR     68  44  42 N8        30.20S
THEDFORD       PTCLDY    71  48  44 NE6       30.19S
AINSWORTH      CLEAR     64  53  67 N7        30.19S
O`NEILL        CLEAR     69  51  52 N5        30.17R
ORD            CLEAR     71  53  52 NE5       30.15R
BROKEN BOW     CLEAR     69  55  60 E3        30.17R
VALENTINE NWR    N/A     69  48  47 N6          N/A
BUTTE            N/A     67  53  61 NW3         N/A
HALSEY           N/A     72  46  39 NE5         N/A
EWING            N/A     69  59  69 CALM        N/A
$$

...OBSERVATIONS IN SOUTHWEST NEBRASKA AND FAR NORTHEAST COLORADO...

CITY           SKY/WX    TMP DP  RH WIND       PRES   REMARKS
WRAY           FAIR      73  41  31 E8        30.18R
HOLYOKE        FAIR      72  46  40 SE8       30.18S
IMPERIAL       CLEAR     73  45  36 SE8       30.17R
OGALLALA       CLEAR     72  47  41 E5        30.17S
NORTH PLATTE   CLEAR     69  56  62 SE5       30.16R
MCCOOK         CLEAR     72  52  49 E9        30.15R
LEXINGTON      CLEAR     72  54  53 E6        30.16R
STAPLETON        N/A     70  52  52 CALM        N/A
GOTHENBURG       N/A     76  51  41 E3          N/A
CALLAWAY         N/A     74  54  49 E3          N/A
$$

...OBSERVATIONS IN CENTRAL LINCOLN COUNTY AREA...

CITY           SKY/WX    TMP DP  RH WIND       PRES   REMARKS
N.P. AIRPORT   CLEAR     69  56  62 SE5       30.16R
N.P. DOWNTOWN    N/A     73  53  50 CALM        N/A
N.P. HILLCREST   N/A     72  52  48 SE5         N/A
$$

...SOME OBSERVATIONS FROM AROUND THE REGION...

CITY           SKY/WX    TMP DP  RH WIND       PRES   REMARKS
DENVER         CLOUDY    59  51  75 E5        30.24R
LARAMIE        CLOUDY    58  39  49 SE14G25   30.25R
CHEYENNE       CLOUDY    62  39  42 SW13      30.25R
SCOTTSBLUFF    PTCLDY    68  49  50 NE9       30.17F
RAPID CITY     MOCLDY    63  43  48 NE6       30.20F
BISMARCK       CLOUDY    65  47  52 SW6       30.12S
PIERRE         CLEAR     65  47  52 N9        30.15R
SIOUX FALLS    PTCLDY    68  56  65 CALM      30.12S
OMAHA          PTCLDY    71  62  73 N5        30.11R
GRAND ISLAND   CLOUDY    69  57  65 NE6       30.15R
KANSAS CITY    CLOUDY    75  66  73 NE13      30.07R
WICHITA        PTCLDY    79  66  64 N8        30.05R
OKLAHOMA CITY  PTCLDY    83  67  58 SE7       29.98R
DALLAS         MOCLDY    89  68  49 SE13      29.98R HX  93
AMARILLO       LGT RAIN  65  60  84 SE9       30.12R
DODGE CITY     PTCLDY    71  61  70 E6        30.11R
HAYS           CLOUDY    73  54  49 E8        30.11R
GOODLAND       CLEAR     68  54  60 E10       30.17S
$$




USA.gov is the U.S. government's official web portal to all federal, state and local government web resources and services.